This is the latest recevied weather packets stored in our database for station/object NR0A-4. If no packets are shown the sender has not sent any weather packets the latest 10 day(s).
| Time | Temp. | Humidity | Pressure | Rain* | Wind** | Luminosity | Snow |
|---|---|---|---|---|---|---|---|
| 1788272404 | 25.56° C | 83% | 1014.3 hPa | 0 mm | - | 360 W/m² | - |
| 1788272105 | 25° C | 84% | 1014.3 hPa | 0 mm | - | 339 W/m² | - |
| 1788271805 | 25° C | 84% | 1014.5 hPa | 0 mm | - | 311 W/m² | - |
| 1788271504 | 24.44° C | 85% | 1014.6 hPa | 0 mm | - | 69 W/m² | - |
| 1788271204 | 24.44° C | 86% | 1014.7 hPa | 0 mm | - | 269 W/m² | - |
| 1788270904 | 24.44° C | 86% | 1014.7 hPa | 0 mm | - | 88 W/m² | - |
| 1788270604 | 23.89° C | 86% | 1014.7 hPa | 0 mm | - | 95 W/m² | - |
| 1788270304 | 23.89° C | 87% | 1014.8 hPa | 0 mm | - | 98 W/m² | - |
| 1788270004 | 23.89° C | 88% | 1014.7 hPa | 0 mm | - | 102 W/m² | - |
| 1788269705 | 23.89° C | 89% | 1014.6 hPa | 0 mm | - | 114 W/m² | - |
| 1788269404 | 23.33° C | 89% | 1014.4 hPa | 0 mm | - | 146 W/m² | - |
| 1788269104 | 23.33° C | 89% | 1014.2 hPa | 0 mm | - | 130 W/m² | - |
| 1788268804 | 22.78° C | 89% | 1014.1 hPa | 0 mm | - | 76 W/m² | - |
| 1788268504 | 22.78° C | 90% | 1014 hPa | 0 mm | - | 74 W/m² | - |
| 1788268204 | 22.78° C | 89% | 1014 hPa | 0 mm | - | 65 W/m² | - |
| 1788267904 | 22.78° C | 89% | 1013.9 hPa | 0 mm | - | 51 W/m² | - |
| 1788267605 | 22.22° C | 89% | 1013.9 hPa | 0 mm | - | 47 W/m² | - |
| 1788267304 | 22.22° C | 89% | 1013.9 hPa | 0 mm | - | 39 W/m² | - |
| 1788267005 | 22.22° C | 89% | 1014 hPa | 0 mm | - | 35 W/m² | - |
| 1788266704 | 22.22° C | 89% | 1013.9 hPa | 0 mm | - | 33 W/m² | - |
| 1788266404 | 22.22° C | 89% | 1013.9 hPa | 0 mm | - | 28 W/m² | - |
| 1788266105 | 22.22° C | 89% | 1013.8 hPa | 0 mm | - | 26 W/m² | - |
| 1788265804 | 22.22° C | 89% | 1013.8 hPa | 0 mm | - | 23 W/m² | - |
| 1788265504 | 22.22° C | 89% | 1014.1 hPa | 0 mm | - | 16 W/m² | - |
| 1788265204 | 22.22° C | 89% | 1014.1 hPa | 0 mm | - | 12 W/m² | - |
* Rain latest hour (hover to see other rain measurements)
** Current wind speed in m/s (hover to see current wind gust speed)